"read_dt","SO2 (ppb)","flags","PMT voltage (V)","lamp voltage (V)","lamp intensity (Hz)","internal temp (C)","react chamber temp (C)","sample flow (l/min)","pres (mmHg)","SO2 bkg (ppb)","SO2 coefficient"
2014-05-28 00:00:00,1815E-3,5C000000,-0724,0852,11960,029.3,045.5,0.487,740.5,01.18,0.508
2014-05-28 00:01:00,1893E-3,5C000000,-0724,0852,11803,029.3,045.5,0.488,740.3,01.18,0.508
2014-05-28 00:02:00,1903E-3,5C000000,-0724,0851,11911,029.3,045.5,0.488,740.5,01.18,0.508
2014-05-28 00:03:00,1846E-3,5C000000,-0724,0853,11975,029.3,045.5,0.488,740.5,01.18,0.508
2014-05-28 00:04:00,1724E-3,5C000000,-0724,0853,11970,029.3,045.5,0.488,740.3,01.18,0.508
2014-05-28 00:05:00,1785E-3,5C000000,-0724,0853,11842,029.3,045.5,0.488,740.6,01.18,0.508
2014-05-28 00:06:00,1773E-3,5C000000,-0724,0851,12148,029.3,045.5,0.488,740.5,01.18,0.508
2014-05-28 00:07:00,1856E-3,5C000000,-0724,0853,11986,029.3,045.5,0.487,740.5,01.18,0.508
2014-05-28 00:08:00,1731E-3,5C000000,-0724,0852,12101,029.3,045.5,0.487,740.4,01.18,0.508
2014-05-28 00:09:00,1942E-3,5C000000,-0724,0851,11976,029.3,045.5,0.488,740.5,01.18,0.508
2014-05-28 00:10:00,1742E-3,5C000000,-0724,0853,12031,029.3,045.5,0.488,740.5,01.18,0.508
2014-05-28 00:11:00,1782E-3,5C000000,-0724,0853,11962,029.3,045.5,0.488,740.5,01.18,0.508
2014-05-28 00:12:00,1873E-3,5C000000,-0724,0852,11933,029.3,045.5,0.488,740.5,01.18,0.508
2014-05-28 00:13:00,1764E-3,5C000000,-0724,0852,11942,029.3,045.5,0.488,740.5,01.18,0.508
2014-05-28 00:14:00,1988E-3,5C000000,-0724,0852,12189,029.3,045.5,0.487,740.5,01.18,0.508
2014-05-28 00:15:00,1758E-3,5C000000,-0724,0852,11954,029.3,045.5,0.487,740.5,01.18,0.508
2014-05-28 00:16:00,1783E-3,5C000000,-0724,0851,12132,029.3,045.5,0.487,740.5,01.18,0.508
2014-05-28 00:17:00,1736E-3,5C000000,-0724,0852,12114,029.3,045.5,0.488,740.5,01.18,0.508
2014-05-28 00:18:00,1769E-3,5C000000,-0724,0851,12018,029.3,045.5,0.488,740.6,01.18,0.508
2014-05-28 00:19:00,1742E-3,5C000000,-0724,0850,11948,029.3,045.5,0.488,740.5,01.18,0.508
2014-05-28 00:20:00,1634E-3,5C000000,-0724,0853,12050,029.3,045.5,0.488,740.6,01.18,0.508
2014-05-28 00:21:00,1825E-3,5C000000,-0724,0853,12159,029.3,045.5,0.488,740.5,01.18,0.508
2014-05-28 00:22:00,1831E-3,5C000000,-0724,0853,11933,029.3,045.5,0.487,740.5,01.18,0.508
2014-05-28 00:23:00,1806E-3,5C000000,-0724,0852,11844,029.3,045.5,0.487,740.5,01.18,0.508
2014-05-28 00:24:00,1819E-3,5C000000,-0724,0851,11905,029.3,045.5,0.488,740.5,01.18,0.508
2014-05-28 00:25:00,1697E-3,5C000000,-0724,0852,11849,029.3,045.5,0.488,740.5,01.18,0.508
2014-05-28 00:26:00,1752E-3,5C000000,-0724,0852,11972,029.3,045.5,0.488,740.5,01.18,0.508
2014-05-28 00:27:00,1852E-3,5C000000,-0724,0853,11927,029.3,045.5,0.488,740.6,01.18,0.508
2014-05-28 00:28:00,1928E-3,5C000000,-0724,0852,11951,029.3,045.5,0.488,740.5,01.18,0.508
2014-05-28 00:29:00,1760E-3,5C000000,-0724,0853,11813,029.3,045.5,0.487,740.5,01.18,0.508
2014-05-28 00:30:00,1812E-3,5C000000,-0724,0853,11917,029.4,045.5,0.487,740.6,01.18,0.508
2014-05-28 00:31:00,1927E-3,5C000000,-0724,0852,11910,029.3,045.5,0.487,740.5,01.18,0.508
2014-05-28 00:32:00,1838E-3,5C000000,-0724,0853,11965,029.4,045.5,0.488,740.6,01.18,0.508
2014-05-28 00:33:00,1834E-3,5C000000,-0724,0852,12021,029.4,045.5,0.488,740.6,01.18,0.508
2014-05-28 00:34:00,1871E-3,5C000000,-0724,0853,12111,029.3,045.5,0.488,740.5,01.18,0.508
2014-05-28 00:35:00,1821E-3,5C000000,-0724,0852,11965,029.4,045.5,0.488,740.5,01.18,0.508
2014-05-28 00:36:00,1708E-3,5C000000,-0724,0852,12002,029.4,045.5,0.488,740.6,01.18,0.508
2014-05-28 00:37:00,1780E-3,5C000000,-0724,0853,12007,029.3,045.5,0.487,740.5,01.18,0.508
2014-05-28 00:38:00,1770E-3,5C000000,-0724,0852,12093,029.4,045.5,0.487,740.6,01.18,0.508
2014-05-28 00:39:00,1709E-3,5C000000,-0724,0853,12175,029.3,045.5,0.487,740.6,01.18,0.508
2014-05-28 00:40:00,1707E-3,5C000000,-0724,0851,12078,029.4,045.5,0.488,740.5,01.18,0.508
2014-05-28 00:41:00,1783E-3,5C000000,-0724,0852,12020,029.4,045.5,0.488,740.6,01.18,0.508
2014-05-28 00:42:00,1767E-3,5C000000,-0724,0852,11862,029.3,045.5,0.488,740.6,01.18,0.508
2014-05-28 00:43:00,1850E-3,5C000000,-0724,0852,12028,029.3,045.5,0.488,740.5,01.18,0.508
2014-05-28 00:44:00,1720E-3,5C000000,-0724,0852,11976,029.3,045.5,0.488,740.6,01.18,0.508
2014-05-28 00:45:00,1725E-3,5C000000,-0724,0853,12090,029.3,045.5,0.488,740.5,01.18,0.508
2014-05-28 00:46:00,1715E-3,5C000000,-0724,0852,12005,029.4,045.5,0.487,740.5,01.18,0.508
2014-05-28 00:47:00,1815E-3,5C000000,-0724,0852,11939,029.3,045.5,0.487,740.5,01.18,0.508
2014-05-28 00:48:00,1801E-3,5C000000,-0724,0852,11979,029.4,045.5,0.487,740.6,01.18,0.508
2014-05-28 00:49:00,1765E-3,5C000000,-0724,0852,12078,029.3,045.5,0.488,740.5,01.18,0.508
2014-05-28 00:50:00,1737E-3,5C000000,-0724,0852,11910,029.3,045.5,0.488,740.5,01.18,0.508
2014-05-28 00:51:00,1803E-3,5C000000,-0724,0853,11879,029.3,045.5,0.488,740.5,01.18,0.508
2014-05-28 00:52:00,1781E-3,5C000000,-0724,0852,12066,029.4,045.5,0.488,740.5,01.18,0.508
2014-05-28 00:53:00,1817E-3,5C000000,-0724,0852,12081,029.4,045.5,0.488,740.5,01.18,0.508
2014-05-28 00:54:00,1726E-3,5C000000,-0724,0852,11950,029.3,045.5,0.487,740.5,01.18,0.508
2014-05-28 00:55:00,1710E-3,5C000000,-0724,0852,12002,029.4,045.5,0.487,740.4,01.18,0.508
2014-05-28 00:56:00,1818E-3,5C000000,-0724,0852,11876,029.4,045.5,0.488,740.4,01.18,0.508
2014-05-28 00:57:00,1762E-3,5C000000,-0724,0853,12120,029.4,045.5,0.488,740.2,01.18,0.508
2014-05-28 00:58:00,1856E-3,5C000000,-0724,0852,11991,029.3,045.5,0.488,740.5,01.18,0.508
2014-05-28 00:59:00,1868E-3,5C000000,-0724,0852,11872,029.4,045.5,0.488,740.5,01.18,0.508
2014-05-28 01:00:00,1661E-3,5C000000,-0724,0852,12103,029.4,045.5,0.488,740.3,01.18,0.508
2014-05-28 01:01:00,1871E-3,5C000000,-0724,0852,12167,029.3,045.5,0.488,740.3,01.18,0.508
2014-05-28 01:02:00,1707E-3,5C000000,-0724,0852,12052,029.4,045.5,0.487,740.2,01.18,0.508
2014-05-28 01:03:00,1814E-3,5C000000,-0724,0852,12081,029.3,045.5,0.487,740.6,01.18,0.508
2014-05-28 01:04:00,1905E-3,5C000000,-0724,0852,12194,029.3,045.5,0.487,740.5,01.18,0.508
2014-05-28 01:05:00,1790E-3,5C000000,-0724,0851,12042,029.3,045.5,0.488,740.2,01.18,0.508
2014-05-28 01:06:00,1742E-3,5C000000,-0724,0852,11929,029.3,045.5,0.488,740.5,01.18,0.508
2014-05-28 01:07:00,1717E-3,5C000000,-0724,0852,11990,029.4,045.5,0.488,740.5,01.18,0.508
2014-05-28 01:08:00,1816E-3,5C000000,-0724,0852,11731,029.4,045.5,0.488,740.5,01.18,0.508
2014-05-28 01:09:00,1871E-3,5C000000,-0724,0851,11940,029.4,045.5,0.488,740.5,01.18,0.508
2014-05-28 01:10:00,1820E-3,5C000000,-0724,0852,11729,029.4,045.5,0.487,740.4,01.18,0.508
2014-05-28 01:11:00,1811E-3,5C000000,-0724,0852,11822,029.4,045.5,0.487,740.2,01.18,0.508
2014-05-28 01:12:00,1838E-3,5C000000,-0724,0852,11999,029.4,045.5,0.487,740.6,01.18,0.508
2014-05-28 01:13:00,1767E-3,5C000000,-0724,0852,11869,029.4,045.5,0.488,740.4,01.18,0.508
2014-05-28 01:14:00,1789E-3,5C000000,-0724,0853,11978,029.4,045.5,0.488,740.5,01.18,0.508
2014-05-28 01:15:00,1737E-3,5C000000,-0724,0852,11561,029.4,045.5,0.488,740.6,01.18,0.508
2014-05-28 01:16:00,1723E-3,5C000000,-0724,0851,11873,029.4,045.5,0.488,740.2,01.18,0.508
2014-05-28 01:17:00,1785E-3,5C000000,-0724,0852,11916,029.4,045.5,0.488,740.5,01.18,0.508
2014-05-28 01:18:00,1774E-3,5C000000,-0724,0852,11847,029.4,045.5,0.487,740.5,01.18,0.508
2014-05-28 01:19:00,1794E-3,5C000000,-0724,0852,11799,029.4,045.5,0.487,740.5,01.18,0.508
2014-05-28 01:20:00,1755E-3,5C000000,-0724,0852,11982,029.4,045.5,0.487,740.4,01.18,0.508
2014-05-28 01:21:00,1857E-3,5C000000,-0724,0852,11950,029.4,045.5,0.487,740.2,01.18,0.508
2014-05-28 01:22:00,1906E-3,5C000000,-0724,0853,11989,029.4,045.5,0.487,740.4,01.18,0.508
2014-05-28 01:23:00,1808E-3,5C000000,-0724,0852,12040,029.4,045.5,0.488,740.2,01.18,0.508
2014-05-28 01:24:00,1843E-3,5C000000,-0724,0852,12026,029.4,045.5,0.488,740.5,01.18,0.508
2014-05-28 01:25:00,1754E-3,5C000000,-0724,0851,11840,029.4,045.5,0.488,740.6,01.18,0.508
2014-05-28 01:26:00,1918E-3,5C000000,-0724,0852,11996,029.4,045.5,0.488,740.5,01.18,0.508
2014-05-28 01:27:00,1730E-3,5C000000,-0724,0853,11952,029.4,045.5,0.488,740.3,01.18,0.508
2014-05-28 01:28:00,1835E-3,5C000000,-0724,0852,11901,029.4,045.5,0.487,740.3,01.18,0.508
2014-05-28 01:29:00,1794E-3,5C000000,-0724,0853,11877,029.4,045.5,0.487,740.4,01.18,0.508
2014-05-28 01:30:00,1843E-3,5C000000,-0724,0853,12022,029.4,045.5,0.487,740.6,01.18,0.508
2014-05-28 01:31:00,1780E-3,5C000000,-0724,0852,11975,029.4,045.5,0.488,740.6,01.18,0.508
2014-05-28 01:32:00,1681E-3,5C000000,-0724,0853,12033,029.4,045.5,0.488,740.4,01.18,0.508
2014-05-28 01:33:00,1841E-3,5C000000,-0724,0853,11891,029.4,045.5,0.488,740.5,01.18,0.508
2014-05-28 01:34:00,1825E-3,5C000000,-0724,0853,12002,029.4,045.5,0.488,740.1,01.18,0.508
2014-05-28 01:35:00,1820E-3,5C000000,-0724,0853,12031,029.4,045.5,0.488,740.4,01.18,0.508
2014-05-28 01:36:00,1742E-3,5C000000,-0724,0852,12126,029.4,045.5,0.488,740.5,01.18,0.508
2014-05-28 01:37:00,1776E-3,5C000000,-0724,0853,12064,029.4,045.5,0.487,740.4,01.18,0.508
2014-05-28 01:38:00,1861E-3,5C000000,-0724,0852,12078,029.4,045.5,0.487,740.1,01.18,0.508
2014-05-28 01:39:00,1713E-3,5C000000,-0724,0853,12020,029.4,045.5,0.487,740.1,01.18,0.508
2014-05-28 01:40:00,1708E-3,5C000000,-0724,0852,11881,029.4,045.5,0.488,740.1,01.18,0.508
2014-05-28 01:41:00,1813E-3,5C000000,-0724,0853,11979,029.4,045.5,0.488,740.2,01.18,0.508
2014-05-28 01:42:00,1783E-3,5C000000,-0724,0852,11831,029.4,045.5,0.488,740.0,01.18,0.508
2014-05-28 01:43:00,1735E-3,5C000000,-0724,0853,12009,029.4,045.5,0.488,740.1,01.18,0.508
2014-05-28 01:44:00,1878E-3,5C000000,-0724,0853,12221,029.4,045.5,0.488,740.1,01.18,0.508
2014-05-28 01:45:00,1823E-3,5C000000,-0724,0853,11908,029.4,045.5,0.488,740.1,01.18,0.508
2014-05-28 01:46:00,1782E-3,5C000000,-0724,0853,11917,029.4,045.5,0.487,740.1,01.18,0.508
2014-05-28 01:47:00,1683E-3,5C000000,-0724,0852,12053,029.4,045.5,0.487,740.2,01.18,0.508
2014-05-28 01:48:00,1912E-3,5C000000,-0724,0853,12005,029.4,045.5,0.487,740.0,01.18,0.508
2014-05-28 01:49:00,1798E-3,5C000000,-0724,0853,12094,029.4,045.5,0.487,740.2,01.18,0.508
2014-05-28 01:50:00,1834E-3,5C000000,-0724,0853,11979,029.4,045.5,0.487,740.1,01.18,0.508
2014-05-28 01:51:00,1882E-3,5C000000,-0724,0852,12013,029.4,045.5,0.488,740.1,01.18,0.508
2014-05-28 01:52:00,1837E-3,5C000000,-0724,0853,11835,029.4,045.5,0.488,740.1,01.18,0.508
2014-05-28 01:53:00,1802E-3,5C000000,-0724,0852,12143,029.4,045.5,0.488,740.0,01.18,0.508
2014-05-28 01:54:00,1829E-3,5C000000,-0724,0852,12073,029.4,045.5,0.488,740.1,01.18,0.508
2014-05-28 01:55:00,1737E-3,5C000000,-0724,0853,11875,029.4,045.5,0.487,740.1,01.18,0.508
2014-05-28 01:56:00,1869E-3,5C000000,-0724,0852,11982,029.4,045.5,0.487,740.2,01.18,0.508
2014-05-28 01:57:00,1807E-3,5C000000,-0724,0852,12106,029.4,045.5,0.487,740.2,01.18,0.508
2014-05-28 01:58:00,1849E-3,5C000000,-0724,0853,12012,029.4,045.5,0.487,740.1,01.18,0.508
2014-05-28 01:59:00,1819E-3,5C000000,-0724,0852,12107,029.4,045.5,0.488,740.1,01.18,0.508
2014-05-28 02:00:00,1739E-3,5C000000,-0724,0852,11826,029.4,045.5,0.488,740.1,01.18,0.508
2014-05-28 02:01:00,1864E-3,5C000000,-0724,0852,11993,029.4,045.5,0.488,740.3,01.18,0.508
2014-05-28 02:02:00,1821E-3,5C000000,-0724,0854,12106,029.4,045.5,0.488,740.2,01.18,0.508
2014-05-28 02:03:00,1900E-3,5C000000,-0724,0852,12072,029.4,045.5,0.487,740.1,01.18,0.508
2014-05-28 02:04:00,1807E-3,5C000000,-0724,0852,11991,029.4,045.5,0.487,740.1,01.18,0.508
2014-05-28 02:05:00,1872E-3,5C000000,-0724,0853,11936,029.4,045.5,0.487,740.1,01.18,0.508
2014-05-28 02:06:00,1786E-3,5C000000,-0724,0852,12079,029.4,045.5,0.487,740.2,01.18,0.508
2014-05-28 02:07:00,1664E-3,5C000000,-0724,0853,11614,029.4,045.5,0.488,740.3,01.18,0.508
2014-05-28 02:08:00,1759E-3,5C000000,-0724,0852,11868,029.4,045.5,0.488,740.2,01.18,0.508
2014-05-28 02:09:00,1711E-3,5C000000,-0724,0853,12152,029.4,045.5,0.488,740.1,01.18,0.508
2014-05-28 02:10:00,1847E-3,5C000000,-0724,0852,11869,029.4,045.5,0.488,740.1,01.18,0.508
2014-05-28 02:11:00,1688E-3,5C000000,-0724,0853,11817,029.4,045.5,0.487,740.2,01.18,0.508
2014-05-28 02:12:00,1729E-3,5C000000,-0724,0853,11916,029.4,045.5,0.487,740.2,01.18,0.508
2014-05-28 02:13:00,1771E-3,5C000000,-0724,0852,11941,029.4,045.5,0.487,740.2,01.18,0.508
2014-05-28 02:14:00,1769E-3,5C000000,-0724,0852,11786,029.4,045.5,0.488,740.3,01.18,0.508
2014-05-28 02:15:00,1769E-3,5C000000,-0724,0852,12018,029.4,045.5,0.488,740.3,01.18,0.508
2014-05-28 02:16:00,1821E-3,5C000000,-0724,0853,12046,029.4,045.5,0.488,740.4,01.18,0.508
2014-05-28 02:17:00,1781E-3,5C000000,-0724,0852,11851,029.4,045.5,0.488,740.2,01.18,0.508
2014-05-28 02:18:00,1723E-3,5C000000,-0724,0852,11944,029.4,045.5,0.488,740.1,01.18,0.508
2014-05-28 02:19:00,1764E-3,5C000000,-0724,0852,12012,029.4,045.5,0.487,740.3,01.18,0.508
2014-05-28 02:20:00,1866E-3,5C000000,-0724,0853,12063,029.4,045.5,0.487,740.2,01.18,0.508
2014-05-28 02:21:00,1819E-3,5C000000,-0724,0853,11981,029.4,045.5,0.487,740.1,01.18,0.508
2014-05-28 02:22:00,1781E-3,5C000000,-0724,0853,11915,029.4,045.5,0.487,740.1,01.18,0.508
2014-05-28 02:23:00,1772E-3,5C000000,-0724,0853,11931,029.4,045.5,0.488,740.1,01.18,0.508
2014-05-28 02:24:00,1704E-3,5C000000,-0724,0852,12128,029.4,045.5,0.488,740.1,01.18,0.508
2014-05-28 02:25:00,1943E-3,5C000000,-0724,0852,11850,029.4,045.5,0.488,740.2,01.18,0.508
2014-05-28 02:26:00,1853E-3,5C000000,-0724,0853,11941,029.4,045.5,0.488,740.1,01.18,0.508
2014-05-28 02:27:00,1774E-3,5C000000,-0724,0853,11964,029.4,045.5,0.488,740.1,01.18,0.508
2014-05-28 02:28:00,1694E-3,5C000000,-0724,0852,12159,029.4,045.5,0.487,740.1,01.18,0.508
2014-05-28 02:29:00,1796E-3,5C000000,-0724,0853,11882,029.4,045.5,0.487,740.2,01.18,0.508
2014-05-28 02:30:00,1688E-3,5C000000,-0724,0852,11808,029.4,045.5,0.487,740.1,01.18,0.508
2014-05-28 02:31:00,1861E-3,5C000000,-0724,0852,11985,029.4,045.5,0.488,740.2,01.18,0.508
2014-05-28 02:32:00,1713E-3,5C000000,-0724,0853,11929,029.4,045.5,0.488,740.1,01.18,0.508
2014-05-28 02:33:00,1780E-3,5C000000,-0724,0852,11887,029.4,045.5,0.488,740.1,01.18,0.508
2014-05-28 02:34:00,1726E-3,5C000000,-0724,0852,11905,029.4,045.5,0.488,740.0,01.18,0.508
2014-05-28 02:35:00,1837E-3,5C000000,-0724,0852,11932,029.4,045.5,0.488,740.1,01.18,0.508
2014-05-28 02:36:00,1938E-3,5C000000,-0724,0852,11959,029.4,045.5,0.487,740.1,01.18,0.508
2014-05-28 02:37:00,1765E-3,5C000000,-0724,0852,11893,029.4,045.5,0.487,740.1,01.18,0.508
2014-05-28 02:38:00,1837E-3,5C000000,-0724,0852,11841,029.4,045.5,0.487,740.0,01.18,0.508
2014-05-28 02:39:00,1827E-3,5C000000,-0724,0853,11946,029.4,045.5,0.487,740.0,01.18,0.508
2014-05-28 02:40:00,1673E-3,5C000000,-0724,0852,11974,029.4,045.5,0.487,740.0,01.18,0.508
2014-05-28 02:41:00,1805E-3,5C000000,-0724,0852,12041,029.4,045.5,0.487,739.9,01.18,0.508
2014-05-28 02:42:00,1751E-3,5C000000,-0724,0853,12016,029.4,045.5,0.488,739.9,01.18,0.508
2014-05-28 02:43:00,1703E-3,5C000000,-0724,0852,11871,029.4,045.5,0.488,740.0,01.18,0.508
2014-05-28 02:44:00,1847E-3,5C000000,-0724,0852,12046,029.4,045.5,0.488,740.1,01.18,0.508
2014-05-28 02:45:00,1712E-3,5C000000,-0724,0852,11982,029.4,045.5,0.488,740.0,01.18,0.508
2014-05-28 02:46:00,1684E-3,5C000000,-0724,0853,12047,029.4,045.5,0.488,740.0,01.18,0.508
2014-05-28 02:47:00,1681E-3,5C000000,-0724,0853,12015,029.4,045.5,0.487,740.0,01.18,0.508
2014-05-28 02:48:00,1821E-3,5C000000,-0724,0853,12052,029.4,045.5,0.487,739.9,01.18,0.508
2014-05-28 02:49:00,1752E-3,5C000000,-0724,0853,12094,029.4,045.5,0.487,740.1,01.18,0.508
2014-05-28 02:50:00,1854E-3,5C000000,-0724,0853,11861,029.4,045.5,0.487,739.9,01.18,0.508
2014-05-28 02:51:00,1848E-3,5C000000,-0724,0852,11917,029.4,045.5,0.488,740.0,01.18,0.508
2014-05-28 02:52:00,1893E-3,5C000000,-0724,0853,11860,029.4,045.5,0.488,740.0,01.18,0.508
2014-05-28 02:53:00,1778E-3,5C000000,-0724,0851,12048,029.4,045.5,0.488,739.9,01.18,0.508
2014-05-28 02:54:00,1715E-3,5C000000,-0724,0852,11894,029.4,045.5,0.487,740.0,01.18,0.508
2014-05-28 02:55:00,1828E-3,5C000000,-0724,0852,11794,029.4,045.5,0.487,740.0,01.18,0.508
2014-05-28 02:56:00,1678E-3,5C000000,-0724,0852,12042,029.4,045.5,0.487,740.0,01.18,0.508
2014-05-28 02:57:00,1789E-3,5C000000,-0724,0852,12107,029.4,045.5,0.487,740.0,01.18,0.508
2014-05-28 02:58:00,1909E-3,5C000000,-0724,0852,12008,029.4,045.5,0.487,740.0,01.18,0.508
2014-05-28 02:59:00,1708E-3,5C000000,-0724,0852,11878,029.4,045.5,0.488,739.9,01.18,0.508
2014-05-28 03:00:00,1680E-3,5C000000,-0724,0853,11931,029.4,045.5,0.488,739.9,01.18,0.508
2014-05-28 03:01:00,1738E-3,5C000000,-0724,0853,11969,029.4,045.5,0.488,740.0,01.18,0.508
2014-05-28 03:02:00,1890E-3,5C000000,-0724,0853,12037,029.4,045.5,0.487,740.0,01.18,0.508
2014-05-28 03:03:00,1871E-3,5C000000,-0724,0852,11946,029.4,045.5,0.487,739.8,01.18,0.508
2014-05-28 03:04:00,1886E-3,5C000000,-0724,0853,11700,029.4,045.6,0.487,740.0,01.18,0.508
2014-05-28 03:05:00,1851E-3,5C000000,-0724,0852,11950,029.4,045.6,0.487,740.0,01.18,0.508
2014-05-28 03:06:00,1652E-3,5C000000,-0724,0852,11964,029.4,045.5,0.487,739.9,01.18,0.508
2014-05-28 03:07:00,1849E-3,5C000000,-0724,0852,12012,029.4,045.5,0.488,739.9,01.18,0.508
2014-05-28 03:08:00,1941E-3,5C000000,-0724,0852,11975,029.4,045.5,0.487,739.9,01.18,0.508
2014-05-28 03:09:00,1835E-3,5C000000,-0724,0852,11942,029.4,045.5,0.487,739.8,01.18,0.508
2014-05-28 03:10:00,1809E-3,5C000000,-0724,0852,11983,029.4,045.5,0.488,739.8,01.18,0.508
2014-05-28 03:11:00,1950E-3,5C000000,-0724,0853,11962,029.4,045.5,0.488,739.8,01.18,0.508
2014-05-28 03:12:00,1655E-3,5C000000,-0724,0853,12098,029.4,045.5,0.488,739.9,01.18,0.508
2014-05-28 03:13:00,1876E-3,5C000000,-0724,0853,11865,029.4,045.5,0.487,739.8,01.18,0.508
2014-05-28 03:14:00,1871E-3,5C000000,-0724,0852,11866,029.4,045.5,0.487,739.7,01.18,0.508
2014-05-28 03:15:00,1961E-3,5C000000,-0724,0852,11991,029.4,045.5,0.487,739.8,01.18,0.508
2014-05-28 03:16:00,1754E-3,5C000000,-0724,0852,12037,029.4,045.5,0.487,739.8,01.18,0.508
2014-05-28 03:17:00,1848E-3,5C000000,-0724,0853,11984,029.4,045.5,0.488,739.7,01.18,0.508
2014-05-28 03:18:00,1811E-3,5C000000,-0724,0852,11945,029.4,045.5,0.488,739.7,01.18,0.508
2014-05-28 03:19:00,1743E-3,5C000000,-0724,0852,11772,029.4,045.5,0.487,739.7,01.18,0.508
2014-05-28 03:20:00,1808E-3,5C000000,-0724,0852,11899,029.4,045.5,0.487,739.7,01.18,0.508
2014-05-28 03:21:00,1813E-3,5C000000,-0724,0852,11963,029.4,045.5,0.487,739.7,01.18,0.508
2014-05-28 03:22:00,1809E-3,5C000000,-0724,0852,11950,029.4,045.5,0.487,739.6,01.18,0.508
2014-05-28 03:23:00,1743E-3,5C000000,-0724,0853,12069,029.5,045.5,0.487,739.7,01.18,0.508
2014-05-28 03:24:00,1779E-3,5C000000,-0724,0852,11972,029.4,045.5,0.488,739.6,01.18,0.508
2014-05-28 03:25:00,1791E-3,5C000000,-0724,0852,11985,029.4,045.5,0.487,739.6,01.18,0.508
2014-05-28 03:26:00,1760E-3,5C000000,-0724,0852,11929,029.4,045.5,0.487,739.6,01.18,0.508
2014-05-28 03:27:00,1755E-3,5C000000,-0724,0852,12082,029.4,045.5,0.487,739.7,01.18,0.508
2014-05-28 03:28:00,1883E-3,5C000000,-0724,0853,12024,029.5,045.5,0.487,739.7,01.18,0.508
2014-05-28 03:29:00,1694E-3,5C000000,-0724,0852,11947,029.4,045.5,0.487,739.6,01.18,0.508
2014-05-28 03:30:00,1904E-3,5C000000,-0724,0852,12009,029.4,045.5,0.488,739.7,01.18,0.508
2014-05-28 03:31:00,1884E-3,5C000000,-0724,0853,11976,029.4,045.5,0.487,739.7,01.18,0.508
2014-05-28 03:32:00,1756E-3,5C000000,-0724,0853,11936,029.5,045.5,0.487,739.6,01.18,0.508
2014-05-28 03:33:00,1879E-3,5C000000,-0724,0852,12016,029.4,045.5,0.487,739.7,01.18,0.508
2014-05-28 03:34:00,1832E-3,5C000000,-0724,0853,12023,029.5,045.5,0.487,739.6,01.18,0.508
2014-05-28 03:35:00,1841E-3,5C000000,-0724,0853,12001,029.4,045.5,0.487,739.6,01.18,0.508
2014-05-28 03:36:00,1904E-3,5C000000,-0724,0852,11944,029.5,045.5,0.488,739.6,01.18,0.508
2014-05-28 03:37:00,1726E-3,5C000000,-0724,0853,11737,029.5,045.5,0.487,739.6,01.18,0.508
2014-05-28 03:38:00,1803E-3,5C000000,-0724,0853,11751,029.5,045.5,0.487,739.6,01.18,0.508
2014-05-28 03:39:00,1759E-3,5C000000,-0724,0853,12038,029.5,045.5,0.487,739.5,01.18,0.508
2014-05-28 03:40:00,1859E-3,5C000000,-0724,0853,11965,029.5,045.5,0.487,739.7,01.18,0.508
2014-05-28 03:41:00,1855E-3,5C000000,-0724,0853,11870,029.4,045.5,0.487,739.7,01.18,0.508
2014-05-28 03:42:00,1760E-3,5C000000,-0724,0853,12001,029.5,045.5,0.487,739.5,01.18,0.508
2014-05-28 03:43:00,1759E-3,5C000000,-0724,0854,12043,029.4,045.5,0.487,739.5,01.18,0.508
2014-05-28 03:44:00,1808E-3,5C000000,-0724,0853,11901,029.5,045.5,0.487,739.4,01.18,0.508
2014-05-28 03:45:00,1783E-3,5C000000,-0724,0853,12000,029.4,045.5,0.487,739.5,01.18,0.508
2014-05-28 03:46:00,1826E-3,5C000000,-0724,0853,11898,029.4,045.5,0.487,739.6,01.18,0.508
2014-05-28 03:47:00,1754E-3,5C000000,-0724,0852,11879,029.4,045.5,0.487,739.4,01.18,0.508
2014-05-28 03:48:00,1793E-3,5C000000,-0724,0853,12025,029.5,045.5,0.488,739.5,01.18,0.508
2014-05-28 03:49:00,1784E-3,5C000000,-0724,0853,11996,029.5,045.5,0.487,739.5,01.18,0.508
2014-05-28 03:50:00,1813E-3,5C000000,-0724,0854,11976,029.4,045.5,0.487,739.5,01.18,0.508
2014-05-28 03:51:00,1854E-3,5C000000,-0724,0852,11850,029.5,045.6,0.487,739.5,01.18,0.508
2014-05-28 03:52:00,1751E-3,5C000000,-0724,0852,11944,029.5,045.5,0.487,739.6,01.18,0.508
2014-05-28 03:53:00,1857E-3,5C000000,-0724,0853,11999,029.4,045.5,0.487,739.5,01.18,0.508
2014-05-28 03:54:00,1768E-3,5C000000,-0724,0853,11916,029.4,045.5,0.487,739.5,01.18,0.508
2014-05-28 03:55:00,1787E-3,5C000000,-0724,0853,11930,029.5,045.5,0.488,739.6,01.18,0.508
2014-05-28 03:56:00,1764E-3,5C000000,-0724,0852,12068,029.5,045.5,0.487,739.6,01.18,0.508
2014-05-28 03:57:00,1842E-3,5C000000,-0724,0854,11974,029.5,045.5,0.487,739.5,01.18,0.508
2014-05-28 03:58:00,1690E-3,5C000000,-0724,0853,11841,029.5,045.5,0.487,739.6,01.18,0.508
2014-05-28 03:59:00,1787E-3,5C000000,-0724,0853,11925,029.5,045.5,0.487,739.6,01.18,0.508
2014-05-28 04:00:00,1797E-3,5C000000,-0724,0852,12010,029.5,045.5,0.487,739.5,01.18,0.508
2014-05-28 04:01:00,1834E-3,5C000000,-0724,0852,11901,029.5,045.5,0.487,739.4,01.18,0.508
2014-05-28 04:02:00,1684E-3,5C000000,-0724,0854,11807,029.5,045.5,0.487,739.5,01.18,0.508
2014-05-28 04:03:00,1840E-3,5C000000,-0724,0853,11962,029.5,045.5,0.487,739.5,01.18,0.508
2014-05-28 04:04:00,1776E-3,5C000000,-0724,0852,11938,029.5,045.5,0.487,739.4,01.18,0.508
2014-05-28 04:05:00,1771E-3,5C000000,-0724,0853,11923,029.5,045.5,0.487,739.5,01.18,0.508
2014-05-28 04:06:00,1704E-3,5C000000,-0724,0852,11989,029.5,045.5,0.487,739.3,01.18,0.508
2014-05-28 04:07:00,1900E-3,5C000000,-0724,0853,12052,029.5,045.5,0.487,739.2,01.18,0.508
2014-05-28 04:08:00,1728E-3,5C000000,-0724,0853,11950,029.5,045.5,0.487,739.3,01.18,0.508
2014-05-28 04:09:00,1773E-3,5C000000,-0724,0853,12099,029.5,045.5,0.487,739.4,01.18,0.508
2014-05-28 04:10:00,1809E-3,5C000000,-0724,0852,11758,029.5,045.5,0.487,739.4,01.18,0.508
2014-05-28 04:11:00,1878E-3,5C000000,-0724,0851,12010,029.5,045.5,0.487,739.4,01.18,0.508
2014-05-28 04:12:00,1763E-3,5C000000,-0724,0852,11872,029.5,045.5,0.487,739.3,01.18,0.508
2014-05-28 04:13:00,1780E-3,5C000000,-0724,0853,11893,029.5,045.5,0.487,739.3,01.18,0.508
2014-05-28 04:14:00,1761E-3,5C000000,-0724,0852,11941,029.5,045.5,0.487,739.3,01.18,0.508
2014-05-28 04:15:00,1881E-3,5C000000,-0724,0852,11949,029.5,045.5,0.487,739.3,01.18,0.508
2014-05-28 04:16:00,1881E-3,5C000000,-0724,0853,12042,029.5,045.5,0.487,739.3,01.18,0.508
2014-05-28 04:17:00,1811E-3,5C000000,-0724,0852,12098,029.5,045.5,0.487,739.4,01.18,0.508
2014-05-28 04:18:00,1769E-3,5C000000,-0724,0854,12003,029.5,045.5,0.487,739.4,01.18,0.508
2014-05-28 04:19:00,1691E-3,5C000000,-0724,0853,11947,029.5,045.5,0.487,739.4,01.18,0.508
2014-05-28 04:20:00,1689E-3,5C000000,-0724,0852,12050,029.4,045.5,0.487,739.3,01.18,0.508